Miscellaneous Local Product
Issued by NWS North Platte, NE

Home | Current Version | Previous Version | Text Only | Print | Product List | Glossary On
Versions: 1 2 3 4 5 6 7 8 9 10 11 12 13 14 15 16 17 18 19 20 21 22 23 24 25 26 27 28 29 30 31 32 33 34 35 36 37 38 39 40 41 42 43 44 45 46 47 48 49 50
519
AXUS43 KLBF 070110
MISLBF


WESTERN AND NORTH CENTRAL NEBRASKA HOURLY WEATHER ROUNDUP
NATIONAL WEATHER SERVICE NORTH PLATTE NE
700 PM CST SAT FEB 06 2016

NOTE: "FAIR" INDICATES FEW OR NO CLOUDS BELOW 12,000 FEET WITH NO
SIGNIFICANT WEATHER AND/OR OBSTRUCTIONS TO VISIBILITY.

NOTE: STATIONS NOT REPORTING VARIABLES SUCH AS SKY/WEATHER OR
PRESSURE ARE PROVIDED BY THE NEBRASKA DEPARTMENT OF
ROADS...RAWS...AND APRS NETWORKS...AND ARE NOT UNDER
NATIONAL WEATHER SERVICE QUALITY CONTROL.

...OBSERVATIONS IN AND NEAR THE EASTERN PANHANDLE OF NEBRASKA...

CITY           SKY/WX    TMP DP  RH WIND       PRES   REMARKS
PINE RIDGE     CLOUDY    42  25  50 W18       29.94R
CHADRON        CLOUDY    42  26  53 NW20G25   30.00R
ALLIANCE       CLOUDY    37  26  64 N14       29.97R WCI  28
SIDNEY         CLOUDY    41  28  60 W20       30.01S
$$

...OBSERVATIONS IN NORTH CENTRAL NEBRASKA...

CITY           SKY/WX    TMP DP  RH WIND       PRES   REMARKS
VALENTINE      CLOUDY    38  29  70 W12       29.89R WCI  30
THEDFORD       CLOUDY    38  30  72 W9        29.92S WCI  32
AINSWORTH      CLEAR     37  29  71 SW10      29.88R WCI  30
O`NEILL        CLOUDY    38  30  71 SW9       29.88S WCI  32
ORD            CLOUDY    35  28  75 SW16      29.92F WCI  25
BROKEN BOW     CLOUDY    36  27  69 W12       29.94F WCI  28
BUTTE            N/A     38  29  71 SW3         N/A
CHAMBERS         N/A     38  28  68 W7G14       N/A  WCI  33
EWING            N/A     36  30  78 SW6         N/A  WCI  31
$$

...OBSERVATIONS IN SOUTHWEST NEBRASKA AND FAR NORTHEAST COLORADO...

CITY           SKY/WX    TMP DP  RH WIND       PRES   REMARKS
WRAY           FAIR      37  28  69 SW9       30.03F WCI  30
HOLYOKE        FAIR      34  27  75 W13       30.03S WCI  25
IMPERIAL       CLOUDY    33  25  72 W8        30.01F WCI  26
OGALLALA       CLOUDY    30  21  69 W6        29.99S WCI  24
NORTH PLATTE   CLOUDY    35  25  66 W9        29.98S WCI  28
MCCOOK         PTCLDY    36  26  67 W9        30.02F WCI  29
LEXINGTON      CLOUDY    37  25  61 SW13      29.98F WCI  29
PAXTON           N/A     31  26  82 SW7         N/A  WCI  24
STAPLETON        N/A     33  27  80 CALM        N/A
GOTHENBURG       N/A     39  26  58 W3          N/A
CALLAWAY         N/A     36  28  73 W13         N/A  WCI  27
$$

...OBSERVATIONS IN CENTRAL LINCOLN COUNTY AREA...

CITY           SKY/WX    TMP DP  RH WIND       PRES   REMARKS
N.P. AIRPORT   CLOUDY    35  25  66 W9        29.98S WCI  28
N.P. DOWNTOWN    N/A     35  27  73 SW3         N/A
N.P. SOUTHEAST   N/A     35  26  70 W6          N/A  WCI  30
N.P. HILLCREST   N/A     34  27  76 W10         N/A  WCI  26
$$

...SOME OBSERVATIONS FROM AROUND THE REGION...

CITY           SKY/WX    TMP DP  RH WIND       PRES   REMARKS
DENVER         CLOUDY    44  19  36 W17G23    30.08S
LARAMIE        CLOUDY    32  17  54 W23G35    30.14R WCI  19
CHEYENNE       CLOUDY    37  18  46 W14G24    30.07S WCI  28
SCOTTSBLUFF    CLOUDY    40  24  53 W23G35    30.00S WCI  30
RAPID CITY     CLOUDY    39  27  62 NW38G53   29.93R WCI  26
BISMARCK       CLEAR     47  23  38 W12       29.70S
PIERRE         CLOUDY    44  29  55 W14       29.86R
WINNER         FAIR      39  28  64 W10       29.85R WCI  32
SIOUX FALLS    CLOUDY    33  26  75 SW9       29.85F WCI  25
OMAHA          MOCLDY    40  28  62 S12       30.01F WCI  33
GRAND ISLAND   CLOUDY    34  24  67 SW23      29.98F WCI  22
KANSAS CITY    CLOUDY    40  30  67 S10       30.15F WCI  33
WICHITA        PTCLDY    38  26  62 S10       30.20S WCI  31
OKLAHOMA CITY  PTCLDY    41  26  55 S6        30.28R
LIBERAL        CLEAR     37  12  35 S12       30.17S WCI  30
HAYS           CLOUDY    37  23  56 SW8       30.10F WCI  31
GOODLAND       CLOUDY    37  26  64 W14       30.07F WCI  28
$$




USA.gov is the U.S. government's official web portal to all federal, state and local government web resources and services.